Location: Ch?eb?any
(49.5815°N, 12.8567°E)
Time: 20:38:26
(UTC+00:00)

Daily predictions for brighter satellites

Satellite Brightness Start Highest point End
(mag) Time Altitude Azimuth Time Altitude Azimuth Time Altitude Azimuth
Cosmos 2228 3.0 18:34:45 10° S 18:39:06 84° E 18:43:26 10° N
Okean-O 4.4 18:36:01 10° SSW 18:40:04 35° W 18:44:09 10° NNW
Cosmos 1408 2.7 18:37:48 10° N 18:41:19 53° ENE 18:44:47 10° SSE
MetOp-A 4.2 18:36:01 10° SSE 18:41:23 90° E 18:46:47 10° NNW
Cosmos 482 Debris 3.0 18:39:33 10° WSW 18:42:24 62° SSE 18:44:27 10° ENE
RESURS DK-1 3.4 18:41:50 10° SSE 18:45:15 25° ESE 18:48:41 10° NE
Cosmos 1300 4.0 18:42:53 10° SSW 18:46:33 45° WNW 18:50:15 10° N
SL-16 R/B 4.1 18:46:57 10° N 18:50:41 17° NE 18:54:25 10° ENE
Cosmos 2058 3.4 18:48:19 10° N 18:52:22 44° ENE 18:56:22 10° SSE
CZ-2C R/B 3.5 18:48:57 10° N 18:54:00 55° WNW 18:59:06 10° SW
Cosmos 1992 Rocket 4.0 18:50:32 10° NNW 18:55:47 77° ENE 19:01:00 10° SSE
DMSP B5D2-2 4.3 18:51:28 10° NNE 18:56:44 81° WNW 19:01:59 10° SSW
Cosmos 2360 Rocket 3.4 18:52:41 10° NW 18:57:59 41° WSW 19:03:13 10° S
Cosmos 2058 Rocket 3.1 18:54:29 10° S 18:58:45 56° E 19:03:02 10° NNE
ATLAS 3B R/B 2.9 18:51:46 10° NW 18:58:47 77° NE 19:05:56 11° SE
Cosmos 1689 Rocket 4.5 18:58:15 10° N 19:00:44 27° WNW 19:03:11 10° SW
COSMOS 2428 2.8 18:55:55 10° NNW 19:01:43 80° ENE 19:07:27 10° SSE
Cosmos 1953 Rocket 3.9 18:57:36 10° NNW 19:01:58 70° W 19:06:16 10° S
COSMOS 2487 2.2 18:59:18 10° SSW 19:02:41 73° ESE 19:06:07 10° NNE
USA 186 3.0 19:00:33 10° S 19:03:38 42° W 19:06:38 10° NNW
USA 215 3.5 18:58:26 10° ESE 19:04:56 70° NNE 19:11:27 10° WNW
SME Rocket 3.7 19:01:12 10° N 19:04:57 61° WNW 19:09:28 10° SSW
Cosmos 1092 Rocket 4.0 18:59:05 10° N 19:05:25 87° E 19:11:37 10° S
Cosmos 2151 4.5 19:02:46 10° NNE 19:06:07 21° ENE 19:08:42 13° ESE
Cosmos 1076 Rocket 4.2 19:05:50 10° N 19:09:55 38° ENE 19:13:19 14° SE
Cosmos 1818 4.0 19:07:37 10° S 19:12:39 41° ESE 19:17:46 10° NE
OPS 8737 4.4 19:09:45 10° NW 19:12:46 68° NE 19:15:35 16° SE
FALCON 9 DEB 3.9 19:10:33 10° SSW 19:13:35 30° SE 19:16:30 11° E
NOSS 0 Rocket 4.1 19:07:29 10° NNW 19:13:42 65° NE 19:19:06 14° SE
ERS-2 3.7 19:10:49 10° N 19:14:15 39° WNW 19:17:39 10° SW
Cosmos 909 Rocket 4.3 19:08:32 10° S 19:14:29 44° ESE 19:20:30 10° NE
Cosmos 2219 Rocket 2.4 19:09:24 10° NNW 19:15:06 73° WSW 19:20:45 10° SSE
Resurs 01 Rocket 1.8 19:12:45 11° SSE 19:16:51 55° ENE 19:21:13 10° N
Cosmos 44 3.7 19:12:10 10° SSW 19:17:04 48° ESE 19:22:14 10° NE
Cosmos 1455 2.1 19:16:18 10° S 19:20:03 88° E 19:23:49 10° N
ATLAS 5 CENTAUR R/B 3.8 19:20:36 10° W 19:24:14 27° NNW 19:28:20 10° NNE
Resurs 1-3 3.8 19:23:57 10° S 19:28:19 73° WSW 19:32:44 10° NNW
Cosmos 1633 3.5 19:25:23 10° N 19:28:37 30° ENE 19:30:05 22° ESE
Cosmos 1356 3.4 19:26:39 10° N 19:30:03 63° ENE 19:32:13 21° SSE
IGS 5A 3.5 19:27:43 17° SSE 19:30:51 61° ENE 19:34:57 10° N
Lacrosse 5 rocket 3.0 19:28:11 10° W 19:31:59 34° NNW 19:36:00 10° NE
ATLAS 5 CENTAUR R/B 2.7 19:30:35 10° W 19:32:00 18° SW 19:33:14 13° S
Cosmos 405 Rocket 2.7 19:30:23 10° N 19:34:26 77° ENE 19:37:21 18° SSE
BREEZE-M DEB (TANK) 4.3 19:22:05 10° W 19:38:43 89° SSW 19:42:11 16° E
Cosmos 1140 Rocket 4.3 19:38:38 20° SE 19:40:55 28° E 19:45:16 10° NE
IRIDIUM 106 4.4 19:36:07 11° SSE 19:41:01 60° E 19:46:10 10° N
Cosmos 2237 Rocket 2.3 19:36:19 10° NNW 19:41:58 65° ENE 19:45:35 22° SE
SPOT 5 4.0 19:40:17 20° ESE 19:42:20 27° ENE 19:46:19 10° N
Cosmos 2279 Rocket 3.9 19:36:19 10° S 19:42:27 69° E 19:48:37 10° NNE
Exosat Rocket 4.2 19:35:56 10° NNW 19:42:37 65° WSW 19:47:11 14° S
BREEZE-M DEB (TANK) 3.7 19:39:51 10° WSW 19:44:20 61° S 19:48:44 16° E
Spot 2 Rocket 3.9 19:41:32 22° SE 19:44:29 46° ENE 19:49:20 10° N
BREEZE-M DEB (TANK) 4.1 19:42:47 10° WSW 19:46:16 81° SSE 19:56:34 10° E
SL-8 R/B 4.4 19:41:57 10° W 19:46:31 43° SSW 19:48:58 24° SSE
CZ-2C R/B 3.8 19:43:16 10° NNE 19:47:38 50° E 19:50:38 19° S
OBJECT-B 3.5 19:48:26 10° SW 19:50:43 18° W 19:53:01 10° NW
Terra 3.1 19:50:06 20° E 19:51:56 25° ENE 19:55:50 10° N
Meteor 2-14 Rocket 4.4 19:46:15 10° N 19:52:19 68° ENE 19:56:27 21° SSE
BREEZE-M DEB (TANK) 4.4 19:51:09 10° WSW 19:55:58 81° NNW 20:17:36 10° ENE
MetOp-B 4.1 19:52:09 19° SSE 19:56:05 88° ENE 20:01:29 10° NNW
Cosmos 2227 Rocket 2.9 19:57:04 25° SE 19:59:08 33° ESE 20:04:07 10° NE
SPOT 1/Viking Rocket 3.5 19:58:13 24° SSE 20:01:26 78° ENE 20:06:41 10° NNW
Cosmos 389 Rocket 2.4 20:00:14 19° SSW 20:02:40 86° WNW 20:06:15 10° N
Cosmos 2251 Rocket 3.8 19:57:36 10° SSW 20:02:58 74° WNW 20:08:20 10° NNE
Cosmos 2333 Rocket 3.9 20:00:15 10° NW 20:05:03 28° WSW 20:09:49 10° SSW
Cosmos 2266 Rocket 4.1 19:59:41 10° N 20:06:05 67° ENE 20:09:47 26° SSE
Cosmos 2297 Rocket 2.4 20:02:13 16° S 20:06:26 46° ESE 20:11:49 10° NE
SPOT 3 Rocket 4.0 20:03:45 15° S 20:08:01 58° WSW 20:13:10 10° NNW
Cosmos 1825 4.2 20:04:53 10° NNW 20:08:02 25° W 20:11:09 10° SW
BREEZE-M DEB (TANK) 2.1 20:06:19 10° W 20:08:17 47° SW 20:08:17 47° SW
Cosmos 2219 3.5 20:05:52 22° S 20:09:05 44° ESE 20:14:25 10° NE
Cosmos 1190 Rocket 4.3 20:07:40 29° SSE 20:09:43 43° ESE 20:14:38 10° NE
ATLAS 2AS CENTAUR R/B 3.6 20:02:29 10° WSW 20:10:19 61° NW 20:17:57 10° NE
ARIANE 5 R/B 2.6 20:09:20 36° SSE 20:11:04 71° ENE 20:15:27 10° N
Meteor 2-21 Rocket 4.4 20:06:53 10° N 20:12:57 75° E 20:16:20 28° SSE
Timation 2 Rocket 4.3 20:10:14 17° S 20:14:59 46° ESE 20:20:59 10° NE
Orbus 7S? 4.0 20:17:44 10° WSW 20:20:55 65° NNW 20:27:33 10° ENE
RESURS DK-1 3.8 20:19:12 10° WSW 20:23:06 40° NW 20:27:02 10° NNE
CZ-4C R/B 4.3 20:18:18 10° W 20:23:07 29° NNW 20:28:51 10° NE
Genesis I 3.2 20:20:37 10° NW 20:24:38 75° NE 20:25:22 56° ESE
USA 245 3.5 20:24:37 38° SSW 20:25:56 62° WSW 20:29:16 10° NNW
Meteor 2-16 Rocket 4.4 20:20:13 10° N 20:26:25 80° E 20:29:25 33° SSE
Cosmos 676 Rocket 4.5 20:26:56 37° ESE 20:27:10 37° ESE 20:31:55 10° NE
Cosmos-2242 2.9 20:25:50 43° S 20:27:12 76° E 20:31:32 10° NNE
Cosmos 1408 Rocket 4.5 20:24:53 10° N 20:28:45 31° ENE 20:29:01 31° E
JB-3 4.4 20:26:44 10° NNE 20:30:50 60° E 20:31:09 57° SE
Cosmos 1655 Rocket 4.2 20:27:39 10° NNW 20:33:56 70° W 20:37:46 25° S
SL-16 R/B 2.3 20:30:19 10° NNW 20:35:59 64° ENE 20:37:53 41° ESE
NOSS 3-1 (C) 4.5 20:29:29 10° NW 20:36:24 52° NE 20:41:19 24° ESE
Cosmos 1980 4.3 20:31:36 10° NW 20:37:06 51° WSW 20:39:45 29° S
BREEZE-M DEB (TANK) 4.4 20:35:20 10° W 20:40:35 89° N 21:03:39 10° E
Cosmos 2151 3.9 20:39:30 10° NNW 20:43:38 44° W 20:45:17 30° SW
Meteor 2-3 Rocket 4.0 20:40:03 10° NNW 20:45:47 65° W 20:48:26 32° SSW
USA 215 3.6 20:45:38 34° S 20:48:08 51° SW 20:54:30 10° WNW
Cosmos 2344 4.0 20:41:10 10° WSW 20:48:31 63° NW 20:56:46 10° NE
ATLAS 3B R/B 4.1 20:43:03 10° NW 20:48:59 30° WSW 20:53:13 17° SSW
Meteor 1-27 4.2 20:47:48 36° S 20:50:16 84° E 20:56:07 10° NNE
FALCON 9 DEB 3.7 20:46:53 10° WSW 20:49:44 55° WNW 20:49:44 55° WNW
Cosmos 2221 3.7 20:53:18 30° ENE 20:53:18 30° ENE 20:56:12 10° NNE
Resurs 01 Rocket 3.9 20:50:30 10° SW 20:53:41 19° W 20:56:52 10° NW
ERS-1 Rocket 3.1 20:54:40 47° S 20:56:03 70° WSW 21:01:06 10° NNW
Cosmos 407 Rocket 3.8 20:53:35 14° SW 20:57:57 63° WNW 21:03:07 10° NNE
Okean 3 Rocket 3.6 20:54:09 10° NNW 20:58:42 74° W 20:59:21 62° SSW
Cosmos 1766 Rocket 3.6 20:58:45 10° NNW 21:03:04 66° W 21:03:29 62° SW
Cosmos 1500 Rocket 4.4 20:59:43 10° N 21:03:43 39° ENE 21:03:43 39° ENE
Cosmos 1943 4.3 21:00:24 10° NNW 21:05:28 33° NE 21:07:11 28° E
Meteor 1-4 Rocket 3.4 21:10:11 44° N 21:10:11 44° N 21:12:43 10° N
Meteor 2-15 4.3 21:09:38 53° SSE 21:11:06 76° E 21:17:10 10° NNE
Lacrosse 5 rocket 3.0 21:08:07 10° NW 21:12:00 32° N 21:14:11 21° ENE
Cosmos 1954 Rocket 3.8 21:12:16 61° SSW 21:13:12 87° ESE 21:18:24 10° NNE
Meteor 2-2 Rocket 4.2 21:18:00 61° SE 21:18:37 65° E 21:24:17 10° NNE
Cosmos 1869 3.8 21:18:39 55° WNW 21:18:39 55° WNW 21:22:34 10° N
COSMOS 2455 2.8 21:18:15 60° SSE 21:18:51 64° ESE 21:24:50 10° NE
SPOT 5 3.5 21:19:30 39° WSW 21:20:14 42° W 21:24:44 10° NNW
Cosmos 1140 Rocket 4.4 21:18:31 15° SW 21:22:29 46° WNW 21:27:27 10° NNE
Cosmos 2237 Rocket 3.8 21:21:09 10° NW 21:25:33 24° WSW 21:27:26 20° SW
SeaSat 1 3.4 21:21:18 10° NE 21:24:37 35° ENE 21:24:37 35° ENE
Terra 2.3 21:28:59 47° WSW 21:29:26 48° W 21:34:05 10° NNW
Timation 1 Rocket 4.2 21:33:37 56° SSW 21:35:01 89° ESE 21:41:02 10° NNE
Cosmos 2082 3.6 21:39:13 65° SW 21:40:06 85° WNW 21:45:46 10° NNE
Cosmos 2263 Rocket 3.2 21:42:46 31° ENE 21:42:46 31° ENE 21:46:21 10° NE
Cosmos 2227 Rocket 3.0 21:38:45 17° SW 21:43:01 49° NW 21:48:32 10° NNE
USA 229 DEB 4.0 21:36:27 10° NW 21:43:41 72° NE 21:46:08 46° ESE
Cosmos 468 Rocket 4.1 21:38:39 10° NNW 21:43:43 60° WSW 21:43:44 60° WSW
USA 229 4.0 21:36:33 10° NW 21:43:47 71° NE 21:46:15 45° ESE
Cosmos 1842 Rocket 4.0 21:49:34 61° NW 21:49:34 61° NW 21:53:33 10° N
Cosmos 1603 3.8 21:44:26 10° NNW 21:50:10 65° ENE 21:50:37 62° E
Cosmos 2297 Rocket 3.6 21:45:25 10° WSW 21:50:37 37° NW 21:55:52 10° NNE
Cosmos 841 Rocket 3.4 21:46:23 10° NNW 21:51:30 78° NE 21:51:30 78° NE
Cosmos 2219 4.5 21:48:09 10° WSW 21:53:21 38° NW 21:58:35 10° NNE
Cosmos 1745 Rocket 3.8 21:49:27 10° N 21:55:50 87° E 21:56:33 72° SSE
Cosmos 1814 Rocket 4.1 21:54:11 10° NNW 21:59:24 67° NE 21:59:24 67° NE
NOSS 3-1 (A) 4.0 21:54:12 10° NW 22:01:33 80° NE 22:04:04 50° SE
Cosmos 1709 Rocket 4.1 21:55:26 10° N 22:01:37 59° ENE 22:02:05 58° E
Cosmos 921 Rocket 3.7 21:58:19 10° NNW 22:01:48 53° N 22:01:48 53° N
Cosmos 1763 Rocket 4.2 21:58:30 10° NW 22:02:58 42° W 22:02:58 42° W
Meteor 1-25 Rocket 4.3 22:02:04 10° N 22:07:45 64° ENE 22:07:50 64° E
S3M 3.9 22:08:54 75° S 22:09:32 87° E 22:15:59 10° N
Spot 4 4.1 22:11:46 68° NW 22:11:46 68° NW 22:16:04 10° NNW
Cosmos 1805 Rocket 4.3 22:07:55 10° NNW 22:11:11 49° NNW 22:11:11 49° NNW
Cosmos 883 Rocket 4.5 22:14:36 64° E 22:14:42 64° E 22:20:54 10° NNE
SL-16 R/B 3.7 22:15:09 10° NW 22:19:40 25° WSW 22:19:46 25° WSW
Sich 1 4.0 22:17:54 10° NNW 22:20:54 44° NNW 22:20:54 44° NNW
Cosmos 540 Rocket 4.0 22:17:47 10° NNW 22:22:04 49° WNW 22:22:04 49° WNW
NOSS 3-1 (C) 4.2 22:20:19 10° NW 22:27:38 59° SW 22:28:43 55° SSW
Meteor 1-20 Rocket 4.2 22:23:36 10° NNW 22:29:20 85° WNW 22:29:20 85° WNW
Cosmos 2221 4.2 22:30:07 27° WNW 22:30:07 27° WNW 22:33:37 10° N
Cosmos 1570 Rocket 4.3 22:24:43 10° NNW 22:29:21 62° WNW 22:29:21 62° WNW
Cosmos 2227 4.2 22:34:45 73° ENE 22:34:45 73° ENE 22:40:02 10° NNE
Cosmos 1633 Rocket 4.1 22:31:38 10° N 22:34:39 43° N 22:34:39 43° N
Cosmos 44 Rocket 4.1 22:36:36 47° WNW 22:37:16 51° NW 22:42:22 10° NNE
Aureole 1 Rocket 3.9 22:38:07 60° WNW 22:38:13 60° WNW 22:42:56 10° NNE
ALOS 2 3.7 22:49:56 40° NW 22:49:56 40° NW 22:52:55 10° NNW
Cosmos 1943 3.7 22:44:19 10° NW 22:48:59 49° W 22:48:59 49° W
Lacrosse 5 rocket 3.0 22:47:19 10° NW 22:49:48 33° NW 22:49:48 33° NW
ATLAS 5 CENTAUR R/B 4.1 22:52:34 10° NNW 22:56:49 25° NNE 23:01:40 10° E
Thor Agena Rocket 3.9 22:54:24 10° NNE 22:58:37 57° NE 22:58:37 57° NE
SeaSat 1 3.7 22:58:59 10° NNE 23:03:29 36° NW 23:04:24 33° WNW
COSMOS 2455 4.2 23:01:18 17° W 23:05:12 34° NW 23:10:41 10° NNE
Cosmos 2315 Rocket 4.1 23:10:31 63° W 23:10:56 64° WNW 23:17:18 10° N
Iridium 4 Rocket 3.9 23:11:57 55° NW 23:11:57 55° NW 23:16:23 10° N
Cosmos 2184 Rocket 3.9 23:05:53 10° N 23:12:16 75° E 23:12:34 74° ESE
Cosmos 1151 Rocket 4.3 23:21:43 38° NNW 23:21:43 38° NNW 23:24:38 10° N
Meteor 1-14 Rocket 4.4 23:15:47 10° NNW 23:21:32 70° WNW 23:21:32 70° WNW
Cosmos 968 Rocket 3.8 23:24:12 65° NNE 23:24:12 65° NNE 23:28:42 10° NNE
Cosmos 2263 Rocket 2.9 23:24:25 41° WNW 23:25:08 44° NW 23:30:29 10° NNE
USA 281 3.0 23:33:03 75° SSW 23:33:26 78° WSW 23:40:03 10° NNW
NOSS 2-2 (D) 4.3 23:30:40 10° NW 23:35:54 88° NE 23:36:03 85° ESE
Cosmos 1844 Rocket 2.9 23:39:31 61° ENE 23:39:31 61° ENE 23:44:26 10° NNE
SL-4 R/B 3.8 23:41:44 30° ENE 23:41:44 30° ENE 23:44:15 10° E
Cosmos 1486 Rocket 4.2 23:40:25 72° N 23:40:25 72° N 23:45:14 10° NNE
Cosmos 1295 Rocket 4.5 23:35:32 10° N 23:41:48 73° E 23:42:22 68° ESE
Cosmos 2074 Rocket 4.0 23:37:06 10° NNW 23:43:18 67° W 23:43:22 67° W
Helios 1A 4.1 23:45:17 44° NNE 23:45:17 44° NNE 23:48:20 10° N
Meteor 2-6 Rocket 4.1 23:48:13 76° NNW 23:48:13 76° NNW 23:53:16 10° N
Meteor 1-5 Rocket 4.5 23:42:10 10° NNW 23:47:20 59° WNW 23:47:20 59° WNW
Cosmos 2082 Rocket 4.3 23:45:12 10° N 23:49:38 23° NE 23:54:02 10° E
Cosmos 1271 Rocket 4.4 23:53:58 31° NE 23:53:58 31° NE 23:56:15 10° NNE
SJ 16-02 3.6 23:56:01 16° E 23:56:01 16° E 23:58:14 10° ENE
